Regional Weather Roundup
Issued by NWS Charleston, SC

Current Version | Previous Version | Graphics & Text | Print | Product List | Glossary On
Versions: 1 2 3 4 5 6 7 8 9 10 11 12 13 14 15 16 17 18 19 20 21 22 23 24 25 26 27 28 29 30 31 32 33 34 35 36 37 38 39 40 41 42 43 44 45 46 47 48 49 50
000 ASUS42 KCHS 240410 RWRCHS REGIONAL WEATHER ROUNDUP NATIONAL WEATHER SERVICE CHARLESTON SC 1100 PM EST SUN NOV 23 2014 NOTE: "FAIR" INDICATES FEW OR NO CLOUDS BELOW 12,000 FEET WITH NO SIGNIFICANT WEATHER AND/OR OBSTRUCTIONS TO VISIBILITY. NOT ALL STATIONS ARE QUALITY CONTROLLED BY THE NATIONAL WEATHER SERVICE. USE DATA WITH CAUTION...ESPECIALLY DEWPOINT OBSERVATIONS. SCZ027-030-031-034>040-042>050-240500- ...SOUTHEAST SOUTH CAROLINA... CITY SKY/WX TMP DP RH WIND PRES REMARKS N CHARLESTON CLOUDY 66 64 93 SW5 29.80F WATERFRONT PRK N/A 68 N/A N/A CALM N/A MOUNT PLEASANT FAIR 70 70 100 CALM 29.79F JOHNS ISLAND CLEAR 66 66 100 CALM 29.80F FOG PINOPOLIS N/A 64 64 100 SW6G14 29.74F MONCKS CORNER N/A 68 68 100 S6 29.78F SUMMERVILLE FAIR 66 66 100 S3 29.80F BEAUFORT MCAS CLOUDY 66 65 96 SW7 29.82F BEAUFORT ARPT FAIR 66 66 100 SW7 29.82F FOG HILTON HEAD IS CLOUDY 66 66 100 S7 29.87R WALTERBORO CLOUDY 68 N/A N/A SW7 29.82R ALLENDALE LGT RAIN 68 66 94 S8G17 29.81S ...SOUTHERN MIDLANDS AND PEE DEE... CITY SKY/WX TMP DP RH WIND PRES REMARKS GEORGETOWN NOT AVBL KINGSTREE NOT AVBL ORANGEBURG CLOUDY 65 62 90 SW9 29.79F BARNWELL MOCLDY 66 64 94 SW10 29.81S AIKEN MOCLDY 64 64 100 S12 29.82F MANNING NOT AVBL COLUMBIA CLOUDY 66 61 84 SW8 29.79R SUMTER CLOUDY 65 63 94 S10 29.76F FLORENCE LGT RAIN 67 63 87 SW8 29.80F MYRTLE BEACH CLOUDY 72 66 83 W14G21 N/A N MYRTLE BEACH CLOUDY 68 66 93 SW14 29.86R $$ GAZ063-065-086>088-099>101-113>116-118-119-134>141-150-240500- ...SOUTHEAST GEORGIA... CITY SKY/WX TMP DP RH WIND PRES REMARKS SAVANNAH ARPT LGT RAIN 69 65 86 W7 29.86R HUNTER AAF CLOUDY 67 67 100 SW5 29.83F FORT STEWART CLOUDY 67 65 94 S3 29.84R STATESBORO NOT AVBL SYLVANIA HVY RAIN 66 65 96 SW8 29.86R CLAXTON CLOUDY 68 68 100 CALM 29.84F ...CSRA...CENTRAL AND FAR SOUTHEAST GEORGIA... CITY SKY/WX TMP DP RH WIND PRES REMARKS THOMSON CLOUDY 66 66 100 S9 29.83S AUGUSTA-BUSH CLOUDY 65 63 93 S7 29.80R AUGUSTA-DANIEL CLOUDY 66 63 90 S10 29.81R SWAINSBORO CLOUDY 68 68 100 SW8 29.82F VIDALIA RAIN 66 64 94 SW10G16 29.84S HAZLEHURST CLOUDY 67 67 100 S6 29.84S ALMA CLOUDY 66 64 93 SW6 29.86R WAYCROSS MOCLDY 69 68 98 S5 29.86S JESUP FAIR 70 68 94 SW3 29.86S BAXLEY RAIN 68 66 94 SW3 29.86R BRUNSWICK CLOUDY 68 64 88 CALM 29.88F SAINT SIMONS MOCLDY 65 65 100 CALM 29.87F FOG $$ SCZ027-028-034-036>038-045-046-048>050-GAZ119-141-240500- ...LAKE AND SUPPLEMENTAL COASTAL OBSERVATIONS... STATION/POSITION TIME TEMP WIND PRES WAVE SWELL AIR SEA DIR/SP/G HT/PER HT/PER/DIR (UTC) (F) (DEG/KT/KT) (MB) (FT/S) (FT/S/D) UPR LAKE MARION NOT AVBL WINYAH BAY 0300 65 210/ 6 1011.0S LAKE MURRAY 0300 65 210/ 11/ 13 1007.8F ACE BASIN NERRS 0300 69 230/ 5 1012.0S FORT PULASKI 0400 64 210/ 7/ 10 1011.5R SAPELO ISLAND NOT AVBL $$ ANZ835-935-AMZ111-154-330-350-352-354-370-450-454-472-240500- ...C-MAN AND BUOY OBSERVATIONS... STATION/POSITION TIME TEMP WIND PRES WAVE SWELL AIR SEA DIR/SP/G HT/PER HT/PER/DIR (UTC) (F) (DEG/KT/KT) (MB) (FT/S) (FT/S/D) FOLLY BEACH CMAN 0300 63 220/ 10/ 11 1011.8S BUOY 41004 0400 76 75 220/ 23/ 29 1010.1F 12/10 10/10 BUOY 41008 0400 66 64 250/ 8/ 10 1011.8F 5/10 5/ 90/10 CAPERS NEARSHORE 0300 64 230/ 12/ 16 N/A FRIPP NEARSHORE NOT AVBL STATION/POSITION TIME TEMP WIND PRES WAVE SWELL AIR SEA DIR/SP/G HT/PER HT/PER/DIR (UTC) (F) (DEG/KT/KT) (MB) (FT/S) (FT/S/D) 5E ST. MARYS GA 0400 61 N/A 6/10 2/110/11 FRYING PAN BUOY 0400 69 67 120/ 21/ 27 1011.9F 12/ 9 BUOY 41025 0400 73 150/ 29/ 35 1013.2F 9/ 7 CAPE LOOKOUT NC 0300 67 150/ 29/ 33 1013.7F BUOY 41002 0344 74 73 150/ 29/ 35 1016.2F 11/ 7 BUOY 41010 0400 79 78 170/ 21/ 25 1015.2S 10/10 5/130/10 ST AUGUSTINE FL 0400 67 190/ 11/ 12 1012.7F $$

USA.gov is the U.S. government's official web portal to all federal, state and local government web resources and services.